Погода в Камышевахе

Украина / Запорожская область     47°43′10″N   35°31′28″E
темп.,
°C
ветер,
м/с
пор.,
м/с
влажн.,
%
обл.,
%
осадки,
мм/ч
давл.,
гПа
погр.,
м
25 июня, сб
сб2500:00+14в22810 0.0 100919
03:00+13всв338768 0.0 101033
06:00+14всв378179 0.0 1011183
09:00+21всв565429 0.0 1012881
12:00+25всв5642100 0.0 10122266
15:00+24св5646100 0.0 10121760
18:00+22всв3558100 0.1 1012218
21:00+20всв3363100 0.1 101342
26 июня, вс
вс2600:00+18всв3472100 0.0 101354
03:00+17всв388760 0.1 1014174
06:00+17св4983100 0.0 1014272
09:00+22св5664100 0.0 1015676
12:00+27св564798 0.0 10141863
15:00+26св7850100 0.0 10141554
18:00+25в51053100 0.0 1015929
21:00+23св5116077 0.0 1016385
27 июня, пн
пн2700:00+21св61470100 0.0 1016359
03:00+19св614776 0.0 1016373
06:00+19св7137297 0.0 1017393
09:00+24всв8105099 0.0 1016882
12:00+28всв8939100 0.0 10171701
15:00+29всв8935100 0.0 10162463
18:00+28всв573896 0.0 10161447
21:00+20ююв126257 0.0 101746
28 июня, вт
вт2800:00+18ссв337785 0.0 101736
03:00+19св485880 0.0 1017167
06:00+18св5106379 0.0 1017212
09:00+25всв684199 0.0 1017714
12:00+28всв573154 0.0 10161791
15:00+30всв672882 0.0 10152143
18:00+30всв673411 0.0 10142359
21:00+26св5105999 0.1 1015377
29 июня, ср
ср2900:00+22св4107481 0.1 1016222
03:00+21св6107856 0.3 1016240
06:00+20св511775 0.1 1016279
09:00+27всв795035 0.1 1016816
12:00+30всв78345 0.0 10161938
15:00+31св78295 0.0 10162325
18:00+29св77335 0.0 10162082
21:00+23св7134664 0.0 1017446